RYR7H LIPX-EBCI

Flight info

Callsign RYR7H
Flight time 1h 14m
Altitude 18000
Route OTZOM Y480 UPXUF L612 ADOSA/N0439F360 DCT TAGIP DCT RESIA DCT ARGAX DCT LOKTA/N0436F350 DCT TEDGO/N0438F360 L608 MISGI Z104 ODVUX/N0381F280 Z104 GESLO N852 LNO
Aircraft B738/M-SDE2E3FGHIRWXY/LB1

Departure

Time 2026-04-29 14:01
Airport Verona Villafranca Valerio Catullo Airport (LIPX)

Arrival

Time 2026-04-29 15:16
Airport Brussels South Charleroi Airport (EBCI)
Time Latitude Longitude Altitude Speed Heading
2026-04-29 13:43 45.40381 10.90495 241 ft 0 kts 134°
2026-04-29 13:58 45.40380 10.90496 241 ft 1 kts 134°
2026-04-29 13:58 45.40373 10.90507 241 ft 3 kts 136°
2026-04-29 13:58 45.40357 10.90536 241 ft 5 kts 110°
2026-04-29 13:59 45.40384 10.90601 241 ft 11 kts 46°
2026-04-29 13:59 45.40440 10.90684 241 ft 12 kts 46°
2026-04-29 13:59 45.40503 10.90754 241 ft 11 kts
2026-04-29 13:59 45.40564 10.90687 241 ft 11 kts 315°
2026-04-29 14:00 45.40627 10.90626 242 ft 11 kts 313°
2026-04-29 14:00 45.40624 10.90524 245 ft 11 kts 257°
2026-04-29 14:00 45.40624 10.90424 247 ft 10 kts 294°
2026-04-29 14:00 45.40589 10.90335 246 ft 16 kts 225°
2026-04-29 14:01 45.40344 10.89979 245 ft 85 kts 225°
2026-04-29 14:01 45.39779 10.89155 239 ft 145 kts 225°
2026-04-29 14:01 45.38978 10.87979 430 ft 174 kts 223°
2026-04-29 14:01 45.38162 10.86717 1169 ft 180 kts 224°
2026-04-29 14:02 45.37344 10.85263 1635 ft 199 kts 229°
2026-04-29 14:02 45.36440 10.83573 1855 ft 229 kts 224°
2026-04-29 14:02 45.35035 10.82428 2097 ft 246 kts 186°
2026-04-29 14:02 45.33319 10.82581 2552 ft 253 kts 154°
2026-04-29 14:03 45.31933 10.83987 3523 ft 246 kts 126°
2026-04-29 14:03 45.31259 10.86225 4367 ft 250 kts 97°
2026-04-29 14:03 45.31283 10.88706 5252 ft 258 kts 83°
2026-04-29 14:03 45.31553 10.91319 5973 ft 270 kts 81°
2026-04-29 14:04 45.31864 10.94014 6694 ft 281 kts 81°
2026-04-29 14:04 45.32219 10.96764 7512 ft 286 kts 71°
2026-04-29 14:04 45.33314 10.99078 8405 ft 286 kts 37°
2026-04-29 14:04 45.35082 11.00212 9247 ft 286 kts
2026-04-29 14:05 45.37069 11.00473 10105 ft 288 kts
2026-04-29 14:05 45.39110 11.00616 10642 ft 303 kts
2026-04-29 14:05 45.41300 11.00476 10813 ft 327 kts 343°
2026-04-29 14:05 45.43377 10.99106 11370 ft 333 kts 327°
2026-04-29 14:06 45.45338 10.97312 12215 ft 333 kts 325°
2026-04-29 14:06 45.47272 10.95508 13228 ft 331 kts 325°
2026-04-29 14:06 45.49218 10.93701 13972 ft 338 kts 326°
2026-04-29 14:06 45.51231 10.91852 14469 ft 348 kts 326°
2026-04-29 14:07 45.53281 10.89989 15192 ft 351 kts 326°
2026-04-29 14:07 45.55347 10.88128 15928 ft 353 kts 326°
2026-04-29 14:07 45.57435 10.86255 16643 ft 356 kts 326°
2026-04-29 14:07 45.59549 10.84365 17335 ft 361 kts 326°
2026-04-29 14:08 45.61689 10.82453 18023 ft 364 kts 326°
2026-04-29 14:08 45.63847 10.80528 18654 ft 367 kts 326°
2026-04-29 14:08 45.66023 10.78585 19292 ft 370 kts 326°
2026-04-29 14:08 45.68205 10.76633 19964 ft 371 kts 326°
2026-04-29 14:09 45.70401 10.74666 20597 ft 374 kts 326°
2026-04-29 14:09 45.72611 10.72684 21185 ft 376 kts 326°
2026-04-29 14:09 45.74846 10.70680 21696 ft 381 kts 326°
2026-04-29 14:09 45.77100 10.68659 22324 ft 383 kts 326°
2026-04-29 14:10 45.79357 10.66634 22937 ft 384 kts 326°
2026-04-29 14:10 45.81634 10.64587 23440 ft 388 kts 326°
2026-04-29 14:10 45.83151 10.63225 23779 ft 390 kts 326°
2026-04-29 14:10 45.86242 10.60446 24417 ft 393 kts 326°
2026-04-29 14:11 45.87778 10.59064 24751 ft 394 kts 325°
2026-04-29 14:11 45.90092 10.56981 25380 ft 391 kts 325°
2026-04-29 14:11 45.92403 10.54897 25820 ft 394 kts 325°
2026-04-29 14:11 45.94733 10.52792 26169 ft 398 kts 325°
2026-04-29 14:12 45.97091 10.50660 26548 ft 401 kts 325°
2026-04-29 14:12 45.99455 10.48523 26999 ft 402 kts 325°
2026-04-29 14:12 46.01823 10.46380 27423 ft 403 kts 325°
2026-04-29 14:12 46.04203 10.44215 27840 ft 405 kts 324°
2026-04-29 14:13 46.06594 10.42044 28253 ft 408 kts 325°
2026-04-29 14:13 46.09000 10.39861 28636 ft 410 kts 325°
2026-04-29 14:13 46.11414 10.37668 29077 ft 411 kts 324°
2026-04-29 14:13 46.13837 10.35464 29512 ft 412 kts 324°
2026-04-29 14:14 46.16261 10.33257 29957 ft 412 kts 324°
2026-04-29 14:14 46.18676 10.31056 30476 ft 409 kts 324°
2026-04-29 14:14 46.21075 10.28865 30885 ft 408 kts 324°
2026-04-29 14:14 46.23472 10.26675 31247 ft 408 kts 324°
2026-04-29 14:15 46.25873 10.24477 31625 ft 408 kts 324°
2026-04-29 14:15 46.28259 10.22292 32112 ft 405 kts 324°
2026-04-29 14:15 46.30632 10.20117 32534 ft 403 kts 324°
2026-04-29 14:15 46.33000 10.17941 32864 ft 403 kts 324°
2026-04-29 14:16 46.35370 10.15763 33194 ft 404 kts 324°
2026-04-29 14:16 46.37739 10.13584 33582 ft 403 kts 324°
2026-04-29 14:16 46.40096 10.11413 33988 ft 401 kts 324°
2026-04-29 14:16 46.42419 10.09271 34319 ft 401 kts 324°
2026-04-29 14:17 46.44772 10.07101 34543 ft 402 kts 324°
2026-04-29 14:17 46.47130 10.04914 34787 ft 402 kts 323°
2026-04-29 14:17 46.49355 10.02488 35094 ft 399 kts 316°
2026-04-29 14:17 46.51438 9.99827 35387 ft 398 kts 316°
2026-04-29 14:18 46.53492 9.97138 35643 ft 398 kts 315°
2026-04-29 14:18 46.55549 9.94435 35907 ft 399 kts 315°
2026-04-29 14:18 46.57605 9.91742 36170 ft 398 kts 315°
2026-04-29 14:18 46.59685 9.89029 36141 ft 404 kts 315°
2026-04-29 14:19 46.63916 9.83536 36174 ft 411 kts 316°
2026-04-29 14:19 46.68428 9.78384 36164 ft 417 kts 328°
2026-04-29 14:20 46.73839 9.75275 36130 ft 421 kts 341°
2026-04-29 14:20 46.79484 9.73133 36181 ft 419 kts 341°
2026-04-29 14:21 46.85134 9.70994 36159 ft 419 kts 341°
2026-04-29 14:21 46.90767 9.68819 36148 ft 419 kts 341°
2026-04-29 14:22 46.96376 9.66628 36156 ft 415 kts 340°
2026-04-29 14:22 47.01965 9.64434 36151 ft 416 kts 340°
2026-04-29 14:23 47.07566 9.62229 36142 ft 416 kts 340°
2026-04-29 14:23 47.13157 9.60024 36140 ft 416 kts 340°
2026-04-29 14:24 47.18747 9.57815 36112 ft 415 kts 340°
2026-04-29 14:24 47.24328 9.55605 36130 ft 416 kts 340°
2026-04-29 14:25 47.29915 9.53387 36126 ft 415 kts 340°
2026-04-29 14:25 47.35490 9.51169 36124 ft 415 kts 340°
2026-04-29 14:26 47.41083 9.48938 36267 ft 419 kts 340°
2026-04-29 14:26 47.43892 9.47816 36572 ft 417 kts 340°
2026-04-29 14:26 47.46694 9.46697 36892 ft 416 kts 340°
2026-04-29 14:27 47.49446 9.45597 37106 ft 416 kts 340°
2026-04-29 14:27 47.52247 9.44474 37305 ft 417 kts 340°
2026-04-29 14:27 47.54954 9.43035 37522 ft 411 kts 330°
2026-04-29 14:28 47.59642 9.38381 38024 ft 404 kts 317°
2026-04-29 14:28 47.63904 9.32899 38151 ft 409 kts 317°
2026-04-29 14:29 47.68212 9.27343 38130 ft 410 kts 317°
2026-04-29 14:29 47.72521 9.21814 38128 ft 409 kts 317°
2026-04-29 14:30 47.76821 9.16303 38135 ft 407 kts 317°
2026-04-29 14:30 47.81107 9.10804 38131 ft 407 kts 317°
2026-04-29 14:31 47.85385 9.05303 38138 ft 406 kts 317°
2026-04-29 14:31 47.89660 8.99794 38144 ft 407 kts 317°
2026-04-29 14:32 47.93944 8.94260 38144 ft 408 kts 317°
2026-04-29 14:32 47.98233 8.88707 38144 ft 409 kts 318°
2026-04-29 14:33 48.02530 8.83131 38147 ft 410 kts 317°
2026-04-29 14:33 48.06813 8.77560 38159 ft 411 kts 317°
2026-04-29 14:34 48.11133 8.71929 38182 ft 413 kts 318°
2026-04-29 14:34 48.15471 8.66260 38166 ft 415 kts 318°
2026-04-29 14:35 48.19823 8.60560 38155 ft 416 kts 318°
2026-04-29 14:35 48.24181 8.54838 38139 ft 417 kts 318°
2026-04-29 14:36 48.28541 8.49101 38159 ft 417 kts 318°
2026-04-29 14:36 48.32904 8.43346 38154 ft 418 kts 318°
2026-04-29 14:37 48.37267 8.37577 38157 ft 418 kts 318°
2026-04-29 14:37 48.41628 8.31798 38155 ft 418 kts 318°
2026-04-29 14:38 48.45984 8.26011 38147 ft 418 kts 318°
2026-04-29 14:38 48.50340 8.20211 38146 ft 418 kts 318°
2026-04-29 14:39 48.54690 8.14403 38178 ft 417 kts 318°
2026-04-29 14:39 48.59015 8.08616 38175 ft 417 kts 318°
2026-04-29 14:40 48.63374 8.02771 38179 ft 417 kts 318°
2026-04-29 14:40 48.67706 7.96946 38178 ft 416 kts 318°
2026-04-29 14:41 48.72031 7.91117 38185 ft 416 kts 318°
2026-04-29 14:41 48.76346 7.85288 38161 ft 416 kts 318°
2026-04-29 14:42 48.80655 7.79454 38178 ft 415 kts 318°
2026-04-29 14:42 48.84963 7.73605 38171 ft 416 kts 318°
2026-04-29 14:43 48.89267 7.67748 38185 ft 416 kts 318°
2026-04-29 14:43 48.93577 7.61870 38180 ft 417 kts 318°
2026-04-29 14:44 48.97866 7.56006 38191 ft 418 kts 318°
2026-04-29 14:44 49.02187 7.50083 38198 ft 418 kts 318°
2026-04-29 14:45 49.06510 7.44143 38203 ft 419 kts 318°
2026-04-29 14:45 49.10843 7.38175 38205 ft 420 kts 319°
2026-04-29 14:46 49.15181 7.32186 38215 ft 421 kts 318°
2026-04-29 14:46 49.19533 7.26162 38218 ft 422 kts 318°
2026-04-29 14:47 49.23890 7.20116 38210 ft 424 kts 318°
2026-04-29 14:47 49.28256 7.14044 38206 ft 425 kts 318°
2026-04-29 14:48 49.32629 7.07944 38196 ft 425 kts 319°
2026-04-29 14:48 49.37000 7.01835 38209 ft 425 kts 319°
2026-04-29 14:49 49.41375 6.95703 38213 ft 426 kts 318°
2026-04-29 14:49 49.45743 6.89564 38214 ft 426 kts 319°
2026-04-29 14:50 49.50115 6.83406 38205 ft 426 kts 318°
2026-04-29 14:50 49.54477 6.77245 38212 ft 425 kts 319°
2026-04-29 14:51 49.58836 6.71075 38196 ft 425 kts 319°
2026-04-29 14:51 49.63193 6.64890 38209 ft 426 kts 319°
2026-04-29 14:52 49.67523 6.58728 38206 ft 427 kts 319°
2026-04-29 14:52 49.71893 6.52493 38210 ft 428 kts 319°
2026-04-29 14:53 49.76268 6.46236 38211 ft 429 kts 319°
2026-04-29 14:53 49.80649 6.39953 38213 ft 430 kts 319°
2026-04-29 14:54 49.85037 6.33644 38193 ft 430 kts 319°
2026-04-29 14:54 49.89421 6.27324 38219 ft 430 kts 319°
2026-04-29 14:55 49.93804 6.20989 38221 ft 431 kts 319°
2026-04-29 14:55 49.98158 6.14591 38224 ft 431 kts 317°
2026-04-29 14:56 50.02393 6.07981 38175 ft 433 kts 317°
2026-04-29 14:56 50.04526 6.04619 37680 ft 437 kts 317°
2026-04-29 14:56 50.06648 6.01249 37126 ft 435 kts 317°
2026-04-29 14:56 50.08747 5.97886 36681 ft 432 kts 317°
2026-04-29 14:57 50.10837 5.94510 36053 ft 433 kts 317°
2026-04-29 14:57 50.12920 5.91115 35540 ft 433 kts 317°
2026-04-29 14:57 50.14997 5.87706 35004 ft 434 kts 317°
2026-04-29 14:57 50.17065 5.84283 34480 ft 434 kts 317°
2026-04-29 14:58 50.19127 5.80834 33910 ft 435 kts 317°
2026-04-29 14:58 50.21181 5.77367 33366 ft 434 kts 317°
2026-04-29 14:58 50.23217 5.73912 32858 ft 431 kts 317°
2026-04-29 14:58 50.25242 5.70463 32379 ft 431 kts 317°
2026-04-29 14:59 50.27287 5.66972 31929 ft 442 kts 317°
2026-04-29 14:59 50.28681 5.64598 31628 ft 453 kts 317°
2026-04-29 14:59 50.31580 5.59656 31111 ft 465 kts 317°
2026-04-29 14:59 50.33028 5.57180 30957 ft 466 kts 317°
2026-04-29 15:00 50.35215 5.53433 30672 ft 465 kts 316°
2026-04-29 15:00 50.37389 5.49706 30427 ft 463 kts 316°
2026-04-29 15:00 50.39560 5.45982 30176 ft 462 kts 316°
2026-04-29 15:00 50.41726 5.42269 29877 ft 461 kts 316°
2026-04-29 15:01 50.43886 5.38565 29596 ft 459 kts 316°
2026-04-29 15:01 50.46025 5.34896 29249 ft 451 kts 316°
2026-04-29 15:01 50.48128 5.31285 28729 ft 446 kts 316°
2026-04-29 15:01 50.50216 5.27702 28138 ft 443 kts 316°
2026-04-29 15:02 50.52288 5.24151 27457 ft 437 kts 316°
2026-04-29 15:02 50.54351 5.20624 26186 ft 442 kts 316°
2026-04-29 15:02 50.56456 5.17051 24865 ft 448 kts 316°
2026-04-29 15:02 50.58592 5.13452 23670 ft 450 kts 316°
2026-04-29 15:03 50.60728 5.09879 22511 ft 446 kts 316°
2026-04-29 15:03 50.62803 5.06309 21481 ft 439 kts 311°
2026-04-29 15:03 50.64477 5.02301 20488 ft 435 kts 303°
2026-04-29 15:03 50.65933 4.98162 19518 ft 429 kts 301°
2026-04-29 15:04 50.67378 4.94102 18559 ft 420 kts 308°
2026-04-29 15:04 50.69395 4.90906 17394 ft 408 kts 327°
2026-04-29 15:04 50.71563 4.88054 16321 ft 409 kts 315°
2026-04-29 15:04 50.73103 4.84264 15255 ft 414 kts 296°
2026-04-29 15:05 50.73883 4.79915 14353 ft 412 kts 278°
2026-04-29 15:05 50.73853 4.75417 13407 ft 408 kts 260°
2026-04-29 15:05 50.73055 4.71191 12589 ft 399 kts 245°
2026-04-29 15:05 50.71636 4.67565 11750 ft 391 kts 229°
2026-04-29 15:06 50.69816 4.64357 10866 ft 385 kts 224°
2026-04-29 15:06 50.67997 4.61337 10389 ft 370 kts 224°
2026-04-29 15:06 50.66270 4.58493 10218 ft 348 kts 224°
2026-04-29 15:06 50.64639 4.55790 9812 ft 336 kts 224°
2026-04-29 15:07 50.63068 4.53172 9252 ft 331 kts 223°
2026-04-29 15:07 50.61473 4.50500 8593 ft 328 kts 224°
2026-04-29 15:07 50.59940 4.47920 7982 ft 326 kts 225°
2026-04-29 15:07 50.58382 4.45295 7416 ft 322 kts 223°
2026-04-29 15:08 50.56879 4.42762 6829 ft 319 kts 224°
2026-04-29 15:08 50.55350 4.40186 6295 ft 315 kts 224°
2026-04-29 15:08 50.53881 4.37710 5915 ft 304 kts 224°
2026-04-29 15:08 50.52480 4.35348 5625 ft 293 kts 221°
2026-04-29 15:09 50.51098 4.33022 5401 ft 280 kts 221°
2026-04-29 15:09 50.49819 4.30871 5301 ft 266 kts 223°
2026-04-29 15:09 50.48579 4.28791 5087 ft 260 kts 223°
2026-04-29 15:09 50.47418 4.26615 4854 ft 262 kts 237°
2026-04-29 15:10 50.46651 4.24028 4692 ft 259 kts 242°
2026-04-29 15:10 50.45938 4.21489 4607 ft 248 kts 238°
2026-04-29 15:10 50.44810 4.19653 4378 ft 223 kts 198°
2026-04-29 15:10 50.43386 4.19132 4164 ft 203 kts 174°
2026-04-29 15:11 50.42038 4.19333 3940 ft 188 kts 154°
2026-04-29 15:11 50.40873 4.20098 3776 ft 177 kts 147°
2026-04-29 15:11 50.39971 4.21229 3582 ft 158 kts 112°
2026-04-29 15:11 50.39707 4.22837 3425 ft 152 kts 88°
2026-04-29 15:12 50.39966 4.24431 3263 ft 153 kts 68°
2026-04-29 15:12 50.40402 4.25974 3050 ft 155 kts 68°
2026-04-29 15:12 50.40831 4.27484 2851 ft 150 kts 68°
2026-04-29 15:12 50.41254 4.28950 2677 ft 146 kts 68°
2026-04-29 15:13 50.41672 4.30414 2550 ft 151 kts 68°
2026-04-29 15:13 50.42118 4.31960 2302 ft 156 kts 67°
2026-04-29 15:13 50.42553 4.33458 2092 ft 145 kts 68°
2026-04-29 15:13 50.42954 4.34834 1921 ft 134 kts 68°
2026-04-29 15:14 50.43327 4.36111 1752 ft 125 kts 69°
2026-04-29 15:14 50.43681 4.37338 1558 ft 124 kts 66°
2026-04-29 15:14 50.44047 4.38590 1402 ft 131 kts 66°
2026-04-29 15:14 50.44433 4.39926 1219 ft 138 kts 65°
2026-04-29 15:15 50.44828 4.41346 999 ft 142 kts 62°
2026-04-29 15:15 50.45248 4.42740 844 ft 141 kts 63°
2026-04-29 15:15 50.45649 4.44120 669 ft 141 kts 65°
2026-04-29 15:15 50.46038 4.45467 593 ft 122 kts 66°
2026-04-29 15:16 50.46302 4.46379 589 ft 57 kts 66°
2026-04-29 15:16 50.46427 4.46808 593 ft 31 kts 64°
2026-04-29 15:16 50.46516 4.46890 593 ft 11 kts 338°
2026-04-29 15:16 50.46570 4.46851 593 ft 7 kts 335°
2026-04-29 15:17 50.46617 4.46818 591 ft 8 kts 337°
2026-04-29 15:17 50.46665 4.46786 589 ft 6 kts 337°
2026-04-29 15:17 50.46708 4.46795 587 ft 8 kts 55°
2026-04-29 15:17 50.46730 4.46880 587 ft 9 kts 68°
2026-04-29 15:18 50.46754 4.46965 586 ft 8 kts 67°